Theta_e
309 309 310 310 310 309 309 309 309 309 309 310 310 311 311 310 309 310 315 317 315 314 315 314 315 316 316 315 316 311 310 313 315 315 315 313 313 312 311 314 312 314 312 312 317
310 310 310 310 310 310 310 310 310 311 311 312 312 313 313 313 311 316 316 314 313 312 315 315 314 315 313 316 315 311 310 312 313 314 317 315 314 313 313 311 312 311 311 313 316
311 312 311 311 312 312 313 314 314 314 313 314 314 314 314 312 315 315 313 313 312 312 315 315 315 315 315 316 317 315 313 314 316 315 314 315 313 313 314 313 311 311 311 311 314
313 313 313 313 313 314 315 316 317 317 316 316 315 314 313 313 314 313 314 312 310 312 316 315 314 315 315 315 315 318 315 315 316 315 314 315 314 313 313 313 312 310 309 309 308
314 314 314 314 315 316 317 317 319 319 319 318 317 315 313 315 314 316 313 312 311 312 315 314 314 314 315 314 313 314 314 314 313 311 311 312 312 312 312 311 309 308 308 307 305
315 315 314 315 316 317 318 320 321 321 320 319 316 314 314 313 315 316 315 311 312 314 314 314 313 312 314 313 313 312 312 311 311 312 311 312 311 312 311 310 309 308 306 303 304
315 315 315 316 317 318 321 322 322 322 320 315 311 312 317 311 314 316 313 313 315 313 313 314 314 314 313 313 312 312 313 311 311 311 311 310 313 312 310 309 308 307 303 304 303
316 316 316 318 318 321 322 322 323 322 315 311 310 315 309 312 312 314 314 313 315 315 314 314 314 313 314 313 311 312 311 312 312 313 312 311 312 311 309 308 308 306 302 303 302
316 316 317 318 319 322 322 322 322 319 313 312 315 316 312 308 310 311 312 312 313 312 312 313 313 311 311 310 309 311 311 311 312 312 313 312 311 310 309 308 307 305 302 302 302
316 317 318 318 321 322 322 322 320 315 318 315 316 314 310 309 310 310 311 312 311 310 310 311 308 309 307 308 311 312 312 311 312 312 311 311 309 309 308 308 308 301 301 302 301
317 317 318 319 322 322 322 320 319 318 317 316 313 311 311 310 310 310 310 311 311 311 310 311 309 309 308 308 309 311 312 311 310 310 311 311 310 310 308 308 305 302 302 302 301
317 318 319 320 322 322 321 319 318 317 319 316 316 316 312 311 312 310 310 310 311 311 310 311 311 310 310 310 311 311 312 311 310 311 311 310 310 307 305 304 303 302 302 301 299
318 319 321 321 322 322 320 319 315 314 318 317 315 318 314 315 317 314 308 308 310 310 311 311 313 311 313 314 314 313 313 313 314 310 308 308 308 308 306 304 303 302 300 299 298
319 320 321 321 322 322 318 317 315 315 318 320 316 310 309 311 312 307 308 310 312 312 310 312 311 313 313 313 312 314 310 311 311 310 311 307 310 308 307 305 303 301 299 298 297
320 321 321 321 322 320 320 318 317 313 324 315 311 308 308 312 308 307 307 309 313 312 312 315 312 312 313 313 309 311 309 310 310 309 309 308 308 308 306 307 303 301 299 298 297
321 322 323 321 321 321 318 317 316 320 325 313 308 309 307 307 308 307 308 307 307 310 310 310 308 309 310 310 310 308 309 308 306 306 310 308 310 311 309 307 303 301 300 298 296
322 322 323 322 321 320 318 319 324 327 318 314 310 308 308 307 307 308 308 308 310 314 314 313 311 310 309 311 308 308 309 314 314 311 314 312 311 311 307 305 304 301 299 297 295
322 323 321 321 320 319 320 324 326 322 321 313 310 309 311 308 308 308 310 312 309 313 314 317 318 310 309 311 312 309 309 311 308 316 314 312 317 314 304 302 301 300 298 297 296
321 318 318 319 319 319 322 326 326 319 319 316 315 314 313 316 312 309 309 311 312 310 317 315 315 308 308 307 310 313 314 312 314 310 315 313 310 308 304 302 300 299 297 296 295
315 312 313 318 319 317 323 324 322 318 316 318 320 320 319 319 319 310 310 311 314 310 310 313 312 313 310 311 308 313 310 314 312 308 313 311 311 310 307 304 301 298 297 295 295
313 313 311 315 315 314 322 319 318 314 314 316 317 318 317 315 317 315 316 314 310 313 311 313 312 312 311 313 313 309 313 313 312 312 308 307 310 307 307 305 302 298 296 294 294
308 315 310 313 313 314 316 315 312 311 310 312 313 314 313 312 312 311 312 311 309 311 314 313 311 308 312 310 308 309 309 310 315 311 309 311 311 307 306 302 300 298 297 294 293
309 308 309 312 316 313 312 314 311 310 310 310 312 312 311 312 314 309 309 310 310 311 312 312 308 302 305 304 308 310 311 310 309 308 305 313 309 303 303 301 299 299 297 295 291
306 307 307 310 308 313 312 312 313 309 310 311 310 310 310 309 308 309 311 310 308 309 309 309 306 305 307 302 306 307 306 305 305 305 304 308 306 304 302 301 300 299 297 293 289
303 306 306 313 312 310 310 310 311 311 309 309 310 310 310 310 309 308 308 308 305 308 306 306 304 306 306 304 304 303 305 304 304 304 304 303 301 301 299 297 295 293 294 292 289
301 302 301 306 309 310 310 309 309 309 308 308 310 309 307 308 307 305 304 305 305 304 304 302 299 299 294 300 301 302 300 300 301 301 300 300 300 298 295 294 292 290 293 292 291
296 296 300 304 307 309 308 308 307 307 303 305 307 305 306 305 302 299 299 300 301 301 301 302 297 294 297 296 293 293 294 296 295 295 295 294 295 290 293 293 292 289 288 288 288
Wind_Speed
2 2 2 3 4 5 5 6 6 7 8 9 10 11 12 15 16 12 4 2 0 2 3 6 2 3 3 4 3 3 4 1 3 2 3 5 6 6 4 2 3 3 3 4 2
4 4 4 4 5 5 6 6 7 7 8 9 10 11 12 15 15 6 2 3 2 4 6 7 2 2 2 1 2 4 3 6 3 4 2 3 2 5 4 6 5 4 6 3 4
5 5 5 5 5 6 6 7 7 8 9 9 10 10 11 12 4 1 1 4 4 8 4 3 3 2 1 1 2 4 4 4 3 4 3 3 4 3 3 6 7 11 5 4 5
6 6 5 5 5 5 6 7 9 10 10 11 10 10 9 5 3 1 2 2 6 11 4 2 1 3 2 3 3 2 6 5 5 2 4 2 4 7 5 11 5 8 9 5 8
7 7 6 5 5 6 6 7 9 11 12 12 10 8 4 1 7 2 2 3 7 11 4 2 3 4 3 2 1 3 3 4 5 9 5 2 7 5 11 14 8 9 8 7 6
9 8 7 6 6 6 7 9 10 12 13 11 8 4 2 4 3 2 2 5 6 9 3 5 4 4 2 3 2 1 3 6 7 9 5 4 3 4 9 1 10 8 9 10 11
11 9 9 8 7 7 8 10 12 13 12 9 6 4 1 9 3 1 2 3 4 4 3 2 2 2 2 2 4 2 5 8 7 2 4 5 3 7 12 3 10 8 9 10 10
12 11 10 9 8 7 8 11 13 12 8 7 4 4 6 3 4 3 3 3 4 3 2 2 3 4 2 0 6 2 3 3 4 1 1 5 8 8 10 6 10 8 8 9 12
14 13 11 10 8 7 10 12 13 9 2 2 3 2 6 2 3 4 4 3 5 5 4 2 2 2 4 4 4 3 3 5 8 1 1 3 6 8 11 4 9 7 7 8 10
16 14 12 10 9 8 11 12 8 4 3 1 0 1 2 4 4 4 6 9 4 4 4 4 5 3 3 3 5 5 4 4 5 5 4 6 9 12 12 9 2 9 8 9 11
17 15 13 10 8 9 10 3 1 1 4 8 5 3 5 4 5 2 4 6 4 4 4 0 3 7 12 9 3 2 3 6 5 7 2 7 7 14 7 8 3 8 8 10 11
18 15 13 11 9 8 8 3 3 3 5 9 6 5 4 7 3 2 7 5 4 5 5 3 7 10 3 5 4 4 4 7 8 4 1 5 12 5 9 5 7 8 8 9 8
20 17 14 10 9 9 9 5 4 2 1 6 3 3 3 6 4 6 9 4 5 6 7 7 5 6 6 3 4 5 5 4 8 5 3 4 7 2 5 8 11 10 10 11 9
22 18 14 10 5 7 5 11 6 3 1 5 4 2 2 4 2 1 3 4 2 9 7 6 6 7 4 5 6 5 5 5 2 2 3 3 4 6 3 6 8 8 7 7 7
25 22 19 17 3 6 5 13 7 2 5 2 3 3 3 5 6 1 1 2 5 5 6 7 4 4 3 7 7 6 2 0 0 2 2 4 1 7 8 3 4 5 6 6 6
29 26 23 18 17 7 14 12 4 3 8 3 4 6 4 2 3 3 3 2 2 2 2 5 1 5 7 2 3 3 3 6 4 3 1 7 6 5 5 6 6 5 6 6 5
32 30 30 26 10 19 18 7 2 6 1 6 5 5 5 5 3 5 5 5 6 5 5 2 4 2 3 4 2 4 5 3 4 2 5 3 3 6 7 1 14 13 8 6 6
37 34 34 25 18 27 12 3 9 8 6 3 5 5 6 7 5 6 5 3 5 1 3 5 3 6 3 5 6 5 7 5 5 3 4 5 5 3 4 7 8 8 8 7 6
37 31 20 19 24 26 6 7 7 6 5 9 4 4 4 5 5 4 7 6 8 10 8 5 5 1 2 2 4 4 4 3 4 2 2 4 1 2 4 5 5 6 6 6 6
24 10 10 23 23 7 6 10 5 4 4 4 8 5 7 5 6 7 8 4 5 6 2 5 0 4 2 3 3 4 6 3 1 1 5 5 5 5 9 8 7 8 7 7 7
15 4 6 16 16 2 8 4 5 5 4 5 7 5 6 6 7 6 5 1 4 3 5 4 4 2 4 5 8 1 3 2 4 5 5 2 5 3 9 12 12 8 8 9 8
5 3 14 20 3 1 4 6 4 3 2 4 3 5 8 8 6 6 9 6 7 8 8 4 5 4 8 3 1 3 7 6 6 6 4 2 8 1 7 9 10 10 11 7 5
3 2 9 7 7 4 2 3 3 6 6 8 9 5 4 7 3 7 5 2 2 7 9 7 1 2 7 5 1 4 2 2 4 3 5 4 7 1 4 7 7 7 7 7 7
3 3 2 2 1 9 7 6 7 5 4 3 4 4 4 6 4 5 3 0 3 1 3 4 5 7 8 5 3 3 5 4 4 2 3 10 6 6 7 7 5 7 8 8 8
2 4 4 7 8 5 8 7 13 7 4 7 5 9 7 6 5 6 4 2 4 3 2 4 5 4 1 4 3 4 8 8 8 6 8 18 11 18 10 5 8 7 4 7 7
2 3 1 2 10 15 8 9 11 9 8 5 5 8 8 8 7 7 7 4 5 1 2 2 1 3 3 1 4 8 13 5 12 15 14 16 21 16 7 3 4 6 6 6 6
2 3 2 6 6 10 10 12 8 9 1 2 9 6 6 5 4 3 5 4 6 8 7 5 5 3 5 3 3 9 9 17 13 10 8 11 13 2 4 5 5 5 6 7 6
Wind_Direction
273 291 306 313 315 315 316 318 323 327 328 329 329 329 328 325 323 315 267 272 112 195 149 149 125 61 25 10 20 84 60 224 243 29 296 329 7 320 300 346 338 275 176 250 270
271 280 288 295 298 302 307 313 316 319 320 320 321 325 327 327 324 296 257 201 244 216 165 157 152 121 32 343 12 89 118 225 203 164 275 275 272 312 338 351 283 262 291 257 185
277 287 292 296 303 310 322 326 324 321 316 315 318 318 322 327 328 242 186 217 202 179 169 165 85 127 52 93 206 161 194 224 248 210 200 251 282 211 331 299 243 280 265 283 211
264 276 287 293 300 307 314 320 320 320 314 311 311 309 313 326 294 193 190 176 175 181 184 184 150 131 171 221 193 163 250 232 273 298 318 277 306 311 201 248 230 271 276 261 271
258 264 268 271 276 291 299 309 316 315 311 308 303 297 298 302 251 219 251 211 189 184 183 169 145 164 193 228 334 205 277 279 277 283 254 234 241 242 267 264 294 285 306 336 359
252 253 250 254 268 285 299 310 314 315 313 308 300 266 162 236 213 237 254 186 185 179 186 178 181 190 200 245 179 173 275 268 271 266 268 253 283 140 274 340 312 314 31 48 53
245 245 244 248 257 276 297 306 312 314 310 309 293 184 183 240 216 205 157 181 179 178 164 137 197 156 115 318 319 328 316 317 273 272 238 169 315 224 253 331 289 295 70 62 46
243 239 240 245 254 271 291 300 304 307 309 314 237 165 238 222 206 208 184 156 184 194 151 129 116 124 157 142 359 334 36 325 277 0 86 136 259 276 279 286 273 1 79 60 42
243 238 239 246 256 271 290 298 300 294 295 78 123 171 267 167 181 181 175 151 119 104 104 113 80 112 48 92 358 348 224 215 306 257 92 197 255 269 291 308 304 28 74 63 45
237 235 237 242 259 282 295 302 296 269 210 206 171 356 234 217 159 148 151 141 117 95 45 58 52 88 51 105 226 217 218 243 243 270 37 269 251 258 276 295 28 111 86 73 60
231 235 237 238 249 288 305 292 351 315 218 197 196 217 127 129 133 147 146 136 102 73 155 207 111 207 208 200 164 172 216 244 264 259 246 272 279 293 309 262 52 95 85 75 62
229 230 234 237 245 275 287 235 213 158 297 241 242 270 155 170 121 220 165 142 153 188 129 61 224 229 177 174 203 227 239 259 272 266 210 314 294 29 19 26 66 96 87 79 68
228 222 228 235 252 262 229 227 168 132 200 291 211 179 183 167 204 203 162 157 169 181 193 167 216 151 171 199 207 227 201 241 239 339 281 344 296 133 63 71 68 58 67 61 58
223 218 215 226 249 207 213 190 168 166 38 253 220 223 116 139 212 138 173 161 199 205 158 231 237 195 185 228 182 273 204 221 212 95 239 42 283 314 150 83 70 74 70 74 70
219 213 212 207 188 181 191 169 164 141 285 194 166 134 148 165 135 309 111 82 184 186 124 242 188 148 169 218 157 227 128 100 140 183 41 306 117 266 117 130 114 94 98 97 87
218 213 211 205 224 203 161 152 146 72 242 193 138 171 138 183 167 133 143 72 131 150 175 249 348 165 200 101 168 115 38 32 54 119 284 223 170 274 191 187 147 154 130 116 99
218 214 208 200 201 180 159 137 138 215 206 189 185 162 187 173 183 170 165 173 163 136 210 215 212 224 147 115 41 94 69 308 337 356 231 128 130 249 322 167 155 151 144 134 124
218 216 205 194 183 167 153 144 210 200 205 146 140 131 183 161 204 181 132 203 238 126 122 174 292 173 178 188 184 169 160 161 222 225 279 322 244 290 9 65 107 127 140 141 133
215 187 177 168 167 166 153 202 200 194 188 149 94 145 218 221 155 148 191 197 209 173 176 167 266 130 181 150 136 179 173 162 112 9 269 238 336 186 86 81 116 142 143 151 154
165 145 170 151 165 156 184 211 211 205 143 140 169 160 180 210 165 178 184 198 205 192 169 203 97 223 173 110 45 150 161 80 29 179 251 285 260 216 194 185 184 175 178 176 178
139 125 177 147 133 119 199 213 240 202 122 172 189 140 194 185 190 196 204 236 163 125 121 142 127 225 122 198 181 151 198 113 149 163 182 240 257 254 177 187 187 193 197 197 194
133 133 170 143 107 155 209 177 218 191 129 199 156 164 178 177 185 217 206 207 167 156 160 195 147 168 206 274 324 194 199 172 203 218 234 186 257 10 178 162 170 198 208 207 173
67 94 196 171 180 191 195 195 227 188 182 184 193 188 173 171 200 209 199 14 177 167 167 179 225 45 342 344 16 185 205 131 87 60 212 215 249 350 126 141 200 209 217 201 168
112 132 297 244 115 182 169 193 205 203 194 149 174 136 142 185 207 200 151 111 15 97 111 107 160 176 211 177 140 189 167 137 131 159 205 233 281 210 212 205 224 235 229 196 178
140 195 201 187 201 154 171 181 206 196 223 172 211 198 164 189 167 194 141 120 18 98 51 135 197 164 144 133 141 220 238 160 198 217 221 266 245 264 269 211 228 235 218 166 181
158 149 297 195 170 183 173 204 197 183 163 207 202 182 180 187 187 187 138 173 182 150 127 9 243 80 307 232 211 259 263 237 235 254 257 255 266 273 288 156 165 200 190 180 191
76 344 310 173 164 180 206 197 191 153 277 182 196 139 191 185 114 70 81 90 146 153 169 156 137 105 256 64 63 290 222 229 240 225 224 233 244 245 255 229 218 206 172 173 191